Location: G�nzburg
(48.4565°N, 10.3217°E)
Time: 19:07:46
(UTC+01:00)

ISS - Pass Details

Date: 14 February 2018
Orbit: 402 x 407 km, 51.6° (Epoch: 25 February)

Event Time Altitude Azimuth Distance (km) Brightness Sun altitude
Rises 18:24:39 0° 282° (WNW) 2,319 1.5 -8.2°
Reaches altitude 10° 18:27:37 10° 252° (WSW) 1,455 0.6 -8.7°
Maximum altitude 18:29:08 13° 225° (SW) 1,303 -0.4 -9.0°
Drops below altitude 10° 18:30:38 10° 197° (SSW) 1,451 -0.7 -9.2°
Sets 18:33:36 0° 167° (SSE) 2,306 0.0 -9.7°
